This is the latest recevied weather packets stored in our database for station/object IN3APK-3. If no packets are shown the sender has not sent any weather packets the latest 10 day(s).
| Time | Temp. | Humidity | Pressure | Rain* | Wind** | Luminosity | Snow |
|---|---|---|---|---|---|---|---|
| 1777713064 | 13.89° C | 46% | 1019.7 hPa | - | - | - | - |
| 1777712412 | 13.89° C | 47% | 1019.9 hPa | - | - | - | - |
| 1777711759 | 12.78° C | 48% | 1019.9 hPa | - | - | - | - |
| 1777710454 | 11.67° C | 49% | 1020.1 hPa | - | - | - | - |
| 1777708497 | 10.56° C | 49% | 1020.4 hPa | - | - | - | - |
| 1777707191 | 10° C | 49% | 1020.6 hPa | - | - | - | - |
| 1777706539 | 9.44° C | 49% | 1020.6 hPa | - | - | - | - |
| 1777705887 | 9.44° C | 49% | 1020.8 hPa | - | - | - | - |
| 1777705235 | 8.89° C | 49% | 1020.8 hPa | - | - | - | - |
| 1777704583 | 8.33° C | 49% | 1020.7 hPa | - | - | - | - |
| 1777703930 | 8.33° C | 49% | 1020.8 hPa | - | - | - | - |
| 1777703277 | 7.78° C | 49% | 1020.9 hPa | - | - | - | - |
| 1777702624 | 7.22° C | 49% | 1021.1 hPa | - | - | - | - |
| 1777701971 | 7.22° C | 49% | 1021.2 hPa | - | - | - | - |
| 1777701319 | 6.67° C | 49% | 1021.2 hPa | - | - | - | - |
| 1777700666 | 6.11° C | 49% | 1021.2 hPa | - | - | - | - |
| 1777700014 | 6.11° C | 49% | 1021.2 hPa | - | - | - | - |
| 1777699361 | 5.56° C | 49% | 1021.3 hPa | - | - | - | - |
| 1777698709 | 5.56° C | 49% | 1021.3 hPa | - | - | - | - |
| 1777698056 | 5.56° C | 49% | 1021.3 hPa | - | - | - | - |
| 1777697404 | 5° C | 49% | 1021.2 hPa | - | - | - | - |
| 1777696751 | 5° C | 49% | 1021.1 hPa | - | - | - | - |
| 1777696098 | 5° C | 49% | 1021.2 hPa | - | - | - | - |
| 1777695446 | 5° C | 49% | 1021.1 hPa | - | - | - | - |
| 1777694794 | 5° C | 48% | 1021 hPa | - | - | - | - |
* Rain since midnight (hover to see other rain measurements)
** Current wind speed in m/s (hover to see current wind gust speed)